Location: Arroyo de Valdeoliva
(40.1604°N, 4.9878°W)
Time: 15:24:58
(UTC+00:00)

BlueWalker 3 - Pass Details

Date: 25 February 2026
Orbit: 451 x 458 km, 53.2° (Epoch: 6 March)

Event Time Altitude Azimuth Distance (km) Brightness Sun altitude
Exits shadow 04:39:49 18° 128° (SE) 1,198 4.2 -27.4°
Maximum altitude 04:39:49 18° 128° (SE) 1,198 4.2 -27.4°
Drops below altitude 10° 04:42:17 10° 84° (E) 1,596 5.5 -26.9°
Sets 04:44:55 0° 65° (ENE) 2,472 6.7 -26.4°
